Weather History for KCTY - May, 2014

Change the Weather History Date:

Thursday, May 22, 2014

  Actual Average Record
Temperature  
Mean Temperature 78 °F 76 °F  
Max Temperature 89 °F 89 °F 95 °F (2011)
Min Temperature 67 °F 64 °F 48 °F (2002)
Degree Days  
Heating Degree Days 0 0  
Month to date heating degree days 1 0  
Since 1 July heating degree days 1181 1303  
Cooling Degree Days 13 11  
Month to date cooling degree days 182 186  
Year to date cooling degree days 364 368  
Growing Degree Days 28 (Base 50)    
Moisture  
Dew Point 66 °F    
Average Humidity 70    
Maximum Humidity 97    
Minimum Humidity 46    
Precipitation  
Precipitation 0.00 in 0.08 in 2.17 in (2013)
Month to date precipitation 5.88 1.57  
Year to date precipitation 25.04 16.05  
Sea Level Pressure  
Sea Level Pressure 30.11 in    
Wind  
Wind Speed 5 mph (West)    
Max Wind Speed 16 mph    
Max Gust Speed 21 mph    
T = Trace of Precipitation, MM = Missing Value Source: NWS Daily Summary

Daily Weather History Graph

Daily Weather History Graph

Search for Another Location

Airport or City:

Trip Planner

Search our weather history database for the weather conditions in past years. The results will help you decide how hot, cold, wet, or windy it might be!

Date:

Astronomy

May. 22, 2014 Rise Set
Actual Time 6:35 AM EDT 8:22 PM EDT
Civil Twilight 6:09 AM EDT 8:48 PM EDT
Nautical Twilight 5:37 AM EDT 9:20 PM EDT
Astronomical Twilight 5:04 AM EDT 9:54 PM EDT
Moon 2:25 AM EDT (5/22) 2:35 PM EDT (5/22)
Length of Visible Light 14h 39m
Length of Day
13h 46m
Last Quarter, 37% of the Moon is Illuminated
May 22
Last Quarter
May 28
New
Jun 5
First Quarter
Jun 13
Full
Jun 19
Last Quarter

Hourly Weather History & Observations

Time (EDT) Temp. Heat Index Dew Point Humidity Pressure Visibility Wind Dir Wind Speed Gust Speed Precip Events Conditions
12:53 AM 68.0 °F - 66.0 °F 93% 30.13 in - Calm Calm - N/A   Unknown
1:53 AM 66.9 °F - 64.9 °F 93% 30.13 in - Calm Calm - N/A   Unknown
2:53 AM 66.9 °F - 64.9 °F 93% 30.13 in - Calm Calm - N/A   Unknown
3:53 AM 69.1 °F - 66.0 °F 90% 30.13 in - North 3.5 mph - 0.01 in   Unknown
4:53 AM 70.0 °F - 68.0 °F 93% 30.12 in - North 4.6 mph - 0.01 in   Unknown
5:53 AM 69.1 °F - 66.9 °F 93% 30.12 in - Calm Calm - 0.01 in   Unknown
6:53 AM 66.9 °F - 64.9 °F 93% 30.13 in - North - - N/A   Unknown
7:53 AM 70.0 °F - 66.9 °F 90% 30.15 in - North - - N/A   Unknown
8:53 AM 75.0 °F - 66.9 °F 76% 30.17 in - Calm Calm - 0.01 in   Unknown
9:53 AM 80.1 °F 81.7 °F 64.0 °F 58% 30.17 in - North 5.8 mph - N/A   Unknown
10:53 AM 82.9 °F 85.4 °F 66.9 °F 58% 30.17 in - NNW 5.8 mph - N/A   Unknown
11:53 AM 86.0 °F 88.2 °F 66.0 °F 51% 30.16 in - Variable 5.8 mph - N/A   Unknown
12:53 PM 87.1 °F 88.3 °F 64.0 °F 46% 30.14 in - WNW 4.6 mph - N/A   Unknown
1:53 PM 88.0 °F 90.7 °F 66.9 °F 49% 30.12 in - SW 10.4 mph - N/A   Unknown
2:53 PM 88.0 °F 89.6 °F 64.9 °F 46% 30.09 in - West 8.1 mph - N/A   Unknown
3:53 PM 87.1 °F 88.9 °F 64.9 °F 48% 30.08 in - West 13.8 mph - N/A   Unknown
4:53 PM 86.0 °F 87.3 °F 64.0 °F 48% 30.06 in - West 13.8 mph - N/A   Unknown
5:53 PM 84.9 °F 85.9 °F 63.0 °F 48% 30.06 in - West 10.4 mph - N/A   Unknown
6:53 PM 82.0 °F 83.4 °F 64.0 °F 54% 30.06 in - West 10.4 mph - N/A   Unknown
7:53 PM 79.0 °F - 66.0 °F 64% 30.06 in - WSW 6.9 mph - N/A   Unknown
8:53 PM 75.9 °F - 66.9 °F 74% 30.06 in - WSW 4.6 mph - 0.01 in   Unknown
9:53 PM 73.9 °F - 68.0 °F 82% 30.07 in - WSW 3.5 mph - N/A   Unknown
10:53 PM 72.0 °F - 68.0 °F 87% 30.08 in - WSW 3.5 mph - N/A   Unknown
11:53 PM 72.0 °F - 68.0 °F 87% 30.08 in - WSW 4.6 mph - N/A   Unknown